Tracking 17145 objects as of 23-May-2015
HD Live streaming from Space Station

BKA 2

Track BKA 2 now!
10-day predictions
BKA 2 is classified as:


NORAD ID: 38708
Int'l Code: 2012-039B
Perigee: 512.9 km
Apogee: 515.5 km
Inclination: 97.4 °
Period: 94.8 minutes
Semi major axis: 6885 km
RCS: 1.9657 m2 (large)
Launch date: July 22, 2012
Source: (BELA)

The BKA satellite is a Belarusian satellite analogue of the Canopus-B, a satellite designed for remote sensing of the Earth. It weighs about 400 kilograms and it is to work on a circular orbit at a height of 510 km.
Your satellite tracking list
Your tracking list is empty





NASA's NSSDC Master Catalog

Two Line Element Set (TLE):
1 38708U 12039B   15143.10789630  .00002807  00000-0  13503-3 0  9991
2 38708 097.4306 057.2405 0001907 075.0716 036.2766 15.19608099157150

Source of the keplerian elements: AFSPC

N2YO: 334